Weather History for Dunkirk, NY

Change the Weather History Date:

Monday, September 16, 2013

  Actual Average Record
Temperature  
Mean Temperature 52 °F -  
Max Temperature 60 °F 70 °F 92 °F (1939)
Min Temperature 39 °F 53 °F 35 °F (1964)
Degree Days  
Heating Degree Days 14    
Growing Degree Days 2 (Base 50)    
Moisture  
Dew Point 50 °F    
Average Humidity 85    
Maximum Humidity 93    
Minimum Humidity 77    
Precipitation  
Precipitation 0.00 in - - ()
Sea Level Pressure  
Sea Level Pressure 30.22 in    
Wind  
Wind Speed 8 mph (NNW)    
Max Wind Speed 12 mph    
Max Gust Speed 22 mph    
Visibility 10 miles    
Events      
Averages and records for this station are not official NWS values.
T = Trace of Precipitation, MM = Missing Value Source: NWS Daily Summary

Daily Weather History Graph

Daily Weather History Graph

Search for Another Location

Airport:

Trip Planner

Search our weather history database for the weather conditions in past years. The results will help you decide how hot, cold, wet, or windy it might be!

Date:

Astronomy

Sep. 16, 2013 Rise Set
Actual Time 6:58 AM EDT 7:24 PM EDT
Civil Twilight 6:30 AM EDT 7:52 PM EDT
Nautical Twilight 5:56 AM EDT 8:26 PM EDT
Astronomical Twilight 5:22 AM EDT 9:00 PM EDT
Moon 5:34 PM EDT (9/16) 3:39 AM EDT (9/16)
Length of Visible Light 13h 22m
Length of Day
12h 26m
Waxing Gibbous, 90% of the Moon is Illuminated
Sep 16
Waxing Gibbous
Sep 19
Full
Sep 26
Last Quarter
Oct 4
New
Oct 11
First Quarter

Hourly Weather History & Observations

Time (EDT) Temp. Windchill Dew Point Humidity Pressure Visibility Wind Dir Wind Speed Gust Speed Precip Events Conditions
12:53 AM 54.0 °F - 52.0 °F 93% 30.11 in 10.0 mi Variable 4.6 mph - 0.00 in   Overcast
1:53 AM 54.0 °F - 52.0 °F 93% 30.10 in 10.0 mi SSW 8.1 mph - N/A   Overcast
2:53 AM 54.0 °F - 52.0 °F 93% 30.10 in 10.0 mi SSW 9.2 mph - N/A   Overcast
3:53 AM 55.0 °F - 52.0 °F 89% 30.09 in 10.0 mi SSW 10.4 mph - N/A   Overcast
4:53 AM 54.0 °F - 52.0 °F 93% 30.10 in 10.0 mi SSW 11.5 mph - N/A   Overcast
5:53 AM 55.9 °F - 52.0 °F 87% 30.11 in 10.0 mi Variable 5.8 mph - N/A   Overcast
6:53 AM 59.0 °F - 52.0 °F 78% 30.13 in 10.0 mi WNW 11.5 mph - N/A   Overcast
7:12 AM 59.0 °F - 53.6 °F 82% 30.14 in 10.0 mi West 10.4 mph - N/A   Overcast
7:19 AM 59.0 °F - 53.6 °F 82% 30.14 in 10.0 mi West 10.4 mph - N/A   Overcast
7:43 AM 59.0 °F - 53.6 °F 82% 30.14 in 10.0 mi West 9.2 mph - N/A   Overcast
7:53 AM 60.1 °F - 54.0 °F 80% 30.14 in 10.0 mi NW 10.4 mph - N/A   Overcast
8:49 AM 60.8 °F - 55.4 °F 82% 30.16 in 10.0 mi NNW 10.4 mph - N/A   Overcast
8:53 AM 60.1 °F - 54.0 °F 80% 30.16 in 10.0 mi North 9.2 mph - N/A   Overcast
9:23 AM 59.0 °F - 53.6 °F 82% 30.17 in 10.0 mi North 8.1 mph - N/A   Overcast
9:36 AM 59.0 °F - 53.6 °F 82% 30.18 in 10.0 mi North 8.1 mph - N/A   Overcast
9:53 AM 59.0 °F - 53.1 °F 81% 30.19 in 10.0 mi North 9.2 mph 18.4 mph N/A   Overcast
10:45 AM 57.2 °F - 53.6 °F 88% 30.20 in 10.0 mi NNW 11.5 mph 18.4 mph N/A   Overcast
10:53 AM 57.9 °F - 53.1 °F 84% 30.21 in 10.0 mi North 8.1 mph 18.4 mph N/A   Overcast
11:05 AM 57.2 °F - 53.6 °F 88% 30.21 in 10.0 mi North 10.4 mph 20.7 mph N/A   Overcast
11:53 AM 55.9 °F - 52.0 °F 87% 30.24 in 10.0 mi North 9.2 mph - N/A   Overcast
12:30 PM 55.4 °F - 50.0 °F 82% 30.24 in 10.0 mi North 8.1 mph 21.9 mph N/A   Overcast
12:53 PM 54.0 °F - 50.0 °F 86% 30.26 in 10.0 mi NNE 11.5 mph - N/A   Overcast
1:33 PM 53.6 °F - 48.2 °F 82% 30.26 in 10.0 mi NNE 10.4 mph - N/A   Overcast
1:53 PM 54.0 °F - 48.9 °F 83% 30.27 in 10.0 mi North 8.1 mph - N/A   Overcast
2:53 PM 54.0 °F - 48.0 °F 80% 30.28 in 10.0 mi North 8.1 mph - N/A   Overcast
3:53 PM 54.0 °F - 48.0 °F 80% 30.29 in 10.0 mi NNE 9.2 mph - N/A   Overcast
4:26 PM 53.6 °F - 46.4 °F 77% 30.28 in 10.0 mi North 9.2 mph - N/A   Overcast
4:53 PM 54.0 °F - 46.9 °F 77% 30.29 in 10.0 mi NE 8.1 mph - N/A   Overcast
5:53 PM 52.0 °F - 48.0 °F 86% 30.31 in 10.0 mi Variable 4.6 mph - N/A   Overcast
6:53 PM 52.0 °F - 46.9 °F 83% 30.32 in 10.0 mi Variable 5.8 mph - N/A   Overcast
7:29 PM 51.8 °F - 46.4 °F 82% 30.33 in 10.0 mi Variable 4.6 mph - N/A   Mostly Cloudy
7:53 PM 48.9 °F - 45.0 °F 86% 30.34 in 10.0 mi Variable 3.5 mph - N/A   Scattered Clouds
8:53 PM 46.0 °F 43.1 °F 43.0 °F 89% 30.36 in 10.0 mi South 5.8 mph - N/A   Partly Cloudy
9:53 PM 44.1 °F 41.5 °F 41.0 °F 89% 30.37 in 10.0 mi SSE 4.6 mph - N/A   Clear
10:53 PM 43.0 °F 40.3 °F 39.9 °F 89% 30.38 in 10.0 mi Variable 4.6 mph - N/A   Clear
11:53 PM 39.9 °F 36.7 °F 37.9 °F 93% 30.39 in 10.0 mi Variable 4.6 mph - N/A   Clear